Showing default

HIMAWARI 1 (GMS 1), 10143

Orbit data source: Space-Track

HIMAWARI 1 (GMS 1), 10143 is a payload satellite owned by NASDA (JP) in GEO that was launched on Thu, 14 Jul 1977 UTC via a DELTA 2914 launch vehicle from the Air Force Eastern Test Range (AFETR). Payload-class satellites include a variety of spacecraft equipped with specific instruments for various scientific and technological missions. These include communications satellites like Starlink; space stations such as the ISS; scientific satellites like the Hubble; Earth observation satellites from companies like Planet Labs, Umbra, and HawkEye 360; GPS; miniature CubeSats for education and research; and military/defense satellites.

Not visible in the next 10 days
Identifier
10143, 1977-065A
Orbit
GEO
Last TLE update
14 hours ago
Origin
Manufacturer
HSES/NEC
Mission
Non-operational Civil Weather
Bus & Motor
HS-335, STAR 27
Mass
664 kg wet, 258 kg dry
Launch date (UTC)
1977-07-14 (48 years ago)
Launch vehicle
DELTA 2914
Launch site
Air Force Eastern Test Range (AFETR)
Object type
Payload
Rocket body
Debris
Shape & HBR
Cyl, 2.7 m
Radar Cross Section
6.413 m², Large (>1 m²)

Expand to show TLE details & history

TLE from 14 hours ago
0 HIMAWARI 1 (GMS 1)
1 10143U 77065A   25128.69996230 -.00000265  00000-0  00000+0 0  9999
2 10143   7.4864 295.9843 0016262 230.6674 112.9461  0.99253977117199
Epoch: 2025-05-08T16:47Z
Definitive object data (Epoch: 2025-05-08T16:47:56.742Z)
Latitude
-2.07376°
Longitude
161.14057°
Altitude
36,100.848 km
Speed
3.062 km/s
True Right ascension
18h 39m 34s
True Declination
-2° 04' 18"
Sunlit
Object was in daylight at TLE epoch
Visualization TLE readout
Latitude
-1.44773°
Longitude
8.14499°
Altitude
36,021.193 km
Speed
3.068 km/s
Apparent Right ascension
08h 01m 42s
Apparent Declination
-6° 47' 08"
Sunlit
Object is in daylight
Visualization observer readout
Local Sidereal Time
14:53:07
Azimuth
273.021° WNW
Elevation
-14.195°
Doppler factor
1
Orbital elements
Apogee altitude
36,144.434 km
Perigee altitude
36,006.358 km
Semi-major axis
42,453.533 km
Eccentricity
0.0016262
Inclination
7.4864°
RAAN
295.9843°
Arg. of periapsis
230.6674°
True anomaly
113.11757°
Mean anomaly
112.9461°
Eccentric anomaly
113.03185°
Mean motion
0.24813 °/min
BSTAR
Unknown
Orbital period
1450.88 mins
Loading historical data...
10143 neighbors
Loading maneuver chart data...
Loading SW <> Apogee altitude chart data...
Loading historical data...
Loading historical data...
Loading historical data...
Loading historical data...
Loading historical data...
Loading historical data...
Loading historical data...

HIMAWARI 1 (GMS 1) Visibility forecast

Observer location: undefined°, undefined°

HIMAWARI 1 (GMS 1) is not visible in the next 10 days
Span
Click to sort rows by Start time (UTC) header in descending order
Start Az.
Max El. time (UTC)
Max El. Az.
Max El.
End time (UTC)
End Az.
|